Skagway, AK

11:46 PM AKDT on May 24, 2018 (GMT -0800)
Skagway

Weather History for PAGY - March, 2013

Change the Weather History Date:

Friday, March 29, 2013

  Actual Average Record
Temperature  
Mean Temperature 34 °F -  
Max Temperature 39 °F 38 °F 55 °F (2012)
Min Temperature 30 °F 27 °F 18 °F (1989)
Degree Days  
Heating Degree Days 32    
Moisture  
Dew Point 24 °F    
Average Humidity 65    
Maximum Humidity 73    
Minimum Humidity 57    
Precipitation  
Precipitation 0.00 in - - ()
Sea Level Pressure  
Sea Level Pressure 30.25 in    
Wind  
Wind Speed 9 mph (SSW)    
Max Wind Speed 25 mph    
Max Gust Speed 34 mph    
Visibility 10 miles    
Events Snow    
Averages and records for this station are not official NWS values.
T = Trace of Precipitation, MM = Missing Value Source: NWS Daily Summary

Daily Weather History Graph

Daily Weather History Graph

Search for Another Location

Airport or City:

Astronomy

Mar. 29, 2013 Rise Set
Actual Time 6:34 AM AKDT 7:38 PM AKDT
Civil Twilight 5:53 AM AKDT 8:20 PM AKDT
Nautical Twilight 5:01 AM AKDT 9:12 PM AKDT
Astronomical Twilight 4:03 AM AKDT 10:11 PM AKDT
Moon 11:42 PM AKDT (3/29) 7:04 AM AKDT (3/29)
Length of Visible Light 14h 27m
Length of Day
13h 03m
Waning Gibbous, 92% of the Moon is Illuminated
Mar 29
Waning Gibbous
Apr 2
Last Quarter
Apr 10
New
Apr 18
First Quarter
Apr 25
Full

Hourly Weather History & Observations

Time (AKDT) Temp. Windchill Dew Point Humidity Pressure Visibility Wind Dir Wind Speed Gust Speed Precip Events Conditions
12:53 AM 30.9 °F 27.5 °F 21.0 °F 67% 30.24 in 10.0 mi NNE 3.5 mph - N/A   Overcast
1:53 AM 30.9 °F 26.2 °F 21.0 °F 67% 30.24 in 10.0 mi NE 4.6 mph - N/A   Mostly Cloudy
2:53 AM 30.9 °F 27.5 °F 21.0 °F 67% 30.24 in 10.0 mi NE 3.5 mph - N/A   Mostly Cloudy
3:53 AM 30.9 °F - 21.0 °F 67% 30.24 in 10.0 mi Calm Calm - N/A   Overcast
4:53 AM 30.9 °F 27.5 °F 21.0 °F 67% 30.24 in 10.0 mi NE 3.5 mph - N/A   Mostly Cloudy
5:53 AM 30.0 °F 23.2 °F 21.0 °F 69% 30.25 in 10.0 mi NNE 6.9 mph - N/A   Partly Cloudy
6:53 AM 30.9 °F 24.3 °F 19.9 °F 64% 30.25 in 10.0 mi NE 6.9 mph - N/A   Scattered Clouds
7:53 AM 30.0 °F 23.2 °F 21.0 °F 69% 30.27 in 10.0 mi NNE 6.9 mph - N/A   Clear
8:53 AM 34.0 °F 26.0 °F 23.0 °F 64% 30.29 in 10.0 mi South 10.4 mph - N/A   Overcast
9:53 AM 36.0 °F 29.0 °F 24.1 °F 62% 30.28 in 10.0 mi SSW 9.2 mph - N/A   Mostly Cloudy
10:53 AM 37.0 °F 28.5 °F 25.0 °F 62% 30.29 in 10.0 mi SSW 13.8 mph - N/A   Mostly Cloudy
11:53 AM 37.0 °F 28.1 °F 24.1 °F 59% 30.29 in 10.0 mi SSW 15.0 mph - N/A   Overcast
12:53 PM 37.9 °F 29.6 °F 24.1 °F 57% 30.29 in 10.0 mi SSW 13.8 mph - N/A   Overcast
1:53 PM 37.9 °F 28.9 °F 24.1 °F 57% 30.30 in 10.0 mi SSW 16.1 mph - N/A   Overcast
2:53 PM 36.0 °F 26.0 °F 27.0 °F 70% 30.30 in 10.0 mi SSW 17.3 mph - N/A   Overcast
3:53 PM 37.0 °F 28.1 °F 26.1 °F 65% 30.27 in 10.0 mi SSW 15.0 mph - N/A   Overcast
4:53 PM 37.9 °F 29.2 °F 25.0 °F 60% 30.27 in 10.0 mi SSW 15.0 mph - N/A   Overcast
5:53 PM 37.9 °F 30.5 °F 26.1 °F 62% 30.25 in 10.0 mi SSW 11.5 mph - N/A   Overcast
6:53 PM 37.9 °F 30.0 °F 27.0 °F 65% 30.23 in 10.0 mi SW 12.7 mph - N/A   Overcast
7:53 PM 37.9 °F 30.5 °F 25.0 °F 60% 30.22 in 10.0 mi SSW 11.5 mph - N/A   Overcast
8:53 PM 37.9 °F 29.2 °F 27.0 °F 65% 30.22 in 10.0 mi SSW 15.0 mph - N/A   Overcast
9:53 PM 37.9 °F 27.9 °F 27.0 °F 65% 30.21 in 10.0 mi SSW 19.6 mph 31.1 mph N/A   Overcast
10:53 PM 37.9 °F 27.1 °F 28.0 °F 68% 30.20 in 9.0 mi SSW 23.0 mph 33.4 mph 0.00 in Snow Light Snow
11:53 PM 37.0 °F 25.4 °F 28.9 °F 73% 30.20 in 10.0 mi SSW 25.3 mph 34.5 mph 0.00 in   Overcast